[[{"header":{"parameterUnit":"m.s-1","parameterCategory":1,"la1":30.2991,"la2":30.254,"lo1":-89.0895,"lo2":-89.0444,"dy":0.0017,"dx":0.0017,"nx":28,"ny":28,"refTime":"2023-08-06T21:00:00:Z","depth":0,"parameterNumber":2,"parameterNumberName":"U-component_of_WINDS"},"data":[0,0,0,0,0,0,0,0,0,0,0,0,0,0,0,0,0,0,0,0,0,0,0,0,0,0,0,0,0,0,0,0,0,0,0,0,0,0,0,0,0,0,0,0,0,0,0,0,0,0,0,0,0,0,0,0,0,0,1.8145,1.8147,0,1.8336,1.8338,1.8341,1.8417,1.8417,1.8416,1.8416,1.8614,1.8619,1.8625,0,0,0,0,0,0,0,0,0,0,0,0,0,1.7849,1.7854,1.8145,1.8147,1.815,1.8336,1.8338,1.8341,1.8417,1.8417,1.8416,1.8416,1.8612,1.8619,1.8625,0,0,0,0,0,0,0,0,0,0,0,0,0,1.8003,1.7856,1.8144,1.821,1.8218,1.8335,1.8339,1.8342,1.8418,1.8417,1.8416,1.8416,1.861,1.8618,1.8626,1.8693,0,0,1.8653,1.8656,0,0,0,0,0,0,0,0,1.7994,1.8014,1.8198,1.8206,1.8215,1.8352,1.8307,1.846,1.8418,1.8342,1.8416,1.8415,1.8527,1.8543,1.858,1.8702,1.8711,1.8653,1.8658,1.8662,1.8665,0,0,0,0,0,0,0,1.7983,1.8006,1.8221,1.8201,1.8211,1.8231,1.8252,1.8336,1.8436,1.8348,1.8354,1.8376,1.8532,1.8572,1.8585,1.8714,1.8653,1.8661,1.8666,1.8669,1.8904,1.8905,0,0,0,0,0,0,1.7961,1.7996,1.8215,1.8226,1.81,1.8237,1.8261,1.8309,1.8436,1.8454,1.8376,1.8379,1.8557,1.8575,1.8593,1.8681,1.8662,1.867,1.8675,1.8903,1.8905,1.8906,0,0,0,0,0,0,1.7955,1.798,1.8207,1.8113,1.8144,1.8243,1.8296,1.8313,1.8353,1.8457,1.8475,1.8398,1.8558,1.8581,1.8668,1.8689,1.8674,1.8682,1.8902,1.8904,1.8905,1.8857,0,0,0,0,0,0,1.7946,1.7977,1.8002,1.8113,1.8148,1.8278,1.8298,1.8317,1.8367,1.8372,1.8482,1.85,1.8559,1.8655,1.8677,1.8701,1.8688,1.89,1.8903,1.8905,1.8858,1.8857,1.8857,0,0,0,0,0,1.7935,1.7981,1.8003,1.8029,1.8182,1.8279,1.8299,1.8365,1.8368,1.8396,1.8463,1.8496,1.8683,1.8663,1.8688,1.8715,1.8899,1.8902,1.8904,1.8858,1.8857,1.8857,0,0,0,0,0,0,1.787,1.7996,1.8023,1.8105,1.8181,1.8291,1.8327,1.8362,1.8439,1.844,1.852,1.8544,1.8626,1.868,1.8655,1.8788,1.8794,1.8802,1.875,1.8751,1.875,1.8736,1.8695,0,0,0,0,0,1.7865,1.7932,1.804,1.8103,1.8139,1.8227,1.8271,1.8316,1.8398,1.843,1.8504,1.8582,1.8659,1.8708,1.8784,1.8866,1.8892,1.8897,1.8897,1.8896,1.8902,1.8952,1.8956,1.8914,1.8914,1.8914,0,0,1.7856,1.7933,1.7971,1.8092,1.8155,1.8225,1.8253,1.8324,1.8377,1.8441,1.8529,1.8586,1.8679,1.8765,1.8806,1.8812,1.8919,1.8899,1.8898,1.8904,1.8955,1.8959,1.8962,1.8916,1.8915,1.8915,0,0,1.7874,1.7939,1.8,1.8064,1.816,1.8219,1.8233,1.834,1.838,1.8469,1.8519,1.8584,1.8714,1.8779,1.8829,1.8876,1.8911,1.8899,1.8897,1.8945,1.8948,1.8952,1.897,1.8976,1.8904,1.8904,1.8904,0,1.7851,1.7956,1.8027,1.8097,1.8149,1.8211,1.8274,1.8333,1.8449,1.8485,1.849,1.8656,1.8723,1.8826,1.8838,1.8876,1.8896,1.8886,1.8942,1.8946,1.895,1.8969,1.8976,1.8902,1.8902,1.8903,1.8903,0,1.7924,1.7997,1.8034,1.8146,1.8203,1.8269,1.8351,1.84,1.8441,1.85,1.8591,1.8674,1.8769,1.8797,1.8837,1.8907,1.8908,1.8926,1.8934,1.8951,1.897,1.8978,1.8899,1.89,1.8901,1.8901,0,0,1.7905,1.8056,1.8069,1.8122,1.8234,1.8292,1.8362,1.8456,1.8498,1.8577,1.8639,1.8749,1.8767,1.8824,1.8873,1.8915,1.8949,1.8929,1.8932,1.8931,1.9034,1.902,1.9027,1.8973,1.8975,1.8976,1.9027,0,1.794,1.8067,1.8134,1.8233,1.8303,1.8364,1.8426,1.8502,1.856,1.8628,1.8692,1.8769,1.8787,1.8822,1.8866,1.8935,1.8971,1.8933,1.9033,1.9036,1.9008,1.9036,1.9021,1.9065,1.9034,1.9036,1.9036,0,1.7996,1.8075,1.8182,1.8289,1.8321,1.8375,1.8467,1.8532,1.8621,1.866,1.8724,1.8773,1.8851,1.8853,1.8963,1.8936,1.8981,1.9022,1.9025,1.9037,1.9037,1.905,1.908,1.9087,1.9049,1.9048,1.9047,0,1.7974,1.8107,1.8189,1.8232,1.8358,1.8395,1.845,1.8538,1.8591,1.8672,1.8708,1.8797,1.8846,1.8915,1.8987,1.8981,1.9091,1.9098,1.9127,1.9125,1.9147,1.9145,1.9185,1.9175,1.9175,1.9174,1.9174,0,1.8006,1.8069,1.8181,1.8231,1.8304,1.8382,1.8453,1.8512,1.8591,1.8655,1.8714,1.8773,1.8864,1.8935,1.8992,1.9076,1.9098,1.9133,1.9147,1.9128,1.9123,1.9159,1.9158,1.9176,1.9176,1.9175,1.9175,0,1.7992,1.8069,1.8163,1.8276,1.8306,1.8355,1.8453,1.8505,1.8566,1.8647,1.867,1.8767,1.8854,1.8933,1.9048,1.9087,1.9173,1.919,1.9142,1.915,1.9175,1.9172,1.924,1.9254,1.9232,1.9232,1.9233,0,1.8008,1.8058,1.8177,1.8224,1.8278,1.8353,1.8408,1.8487,1.8542,1.8649,1.8689,1.878,1.8858,1.8995,1.9076,1.9165,1.9186,1.9204,1.92,1.918,1.9188,1.9184,1.9191,1.9203,1.9203,1.9203,1.9203,0,1.8028,1.8064,1.814,1.8231,1.8295,1.837,1.8447,1.8483,1.8577,1.8636,1.8726,1.8786,1.8905,1.8996,1.9095,1.9153,1.9194,1.9203,1.9215,1.9196,1.9167,1.9184,1.9141,1.9201,1.9201,1.9202,1.9202,1.9202,1.803,1.8079,1.8171,1.8255,1.8322,1.8393,1.8448,1.8517,1.8594,1.8697,1.8739,1.8831,1.8922,1.906,1.9118,1.9192,1.92,1.9216,1.9221,1.9224,1.9221,1.9154,1.921,1.921,1.921,1.9211,1.9211,0,1.8054,1.8117,1.8194,1.8301,1.8367,1.8401,1.8489,1.8542,1.8623,1.8704,1.8779,1.8884,1.8974,1.9062,1.9157,1.92,1.9221,1.9222,1.922,1.9233,1.9207,1.9188,1.9203,1.9203,1.9203,1.9203,1.9203,1.9203,1.8075,1.816,1.8207,1.8327,1.839,1.848,1.8528,1.8595,1.8661,1.8775,1.885,1.8907,1.8993,1.9094,1.9179,1.9203,1.9235,1.9231,1.926,1.9235,1.9234,1.9234,1.9217,1.9237,1.9237,1.928,1.928,1.9281]},{"header":{"parameterUnit":"m.s-1","parameterCategory":1,"la1":30.2991,"la2":30.254,"lo1":-89.0895,"lo2":-89.0444,"dy":0.0017,"dx":0.0017,"nx":28,"ny":28,"refTime":"2023-08-06T21:00:00:Z","depth":0,"parameterNumber":3,"parameterNumberName":"V-component_of_WINDS"},"data":[0,0,0,0,0,0,0,0,0,0,0,0,0,0,0,0,0,0,0,0,0,0,0,0,0,0,0,0,0,0,0,0,0,0,0,0,0,0,0,0,0,0,0,0,0,0,0,0,0,0,0,0,0,0,0,0,0,0,5.32,5.3202,0,5.3378,5.338,5.3382,5.3392,5.339,5.3388,5.3387,5.3556,5.3562,5.3569,0,0,0,0,0,0,0,0,0,0,0,0,0,5.2859,5.2865,5.32,5.3202,5.3205,5.3378,5.338,5.3382,5.3393,5.339,5.3388,5.3386,5.3554,5.3562,5.3569,0,0,0,0,0,0,0,0,0,0,0,0,0,5.3019,5.2868,5.32,5.3231,5.3236,5.3377,5.338,5.3383,5.3393,5.339,5.3387,5.3385,5.3552,5.3561,5.357,5.3689,0,0,5.36,5.3604,0,0,0,0,0,0,0,0,5.301,5.3031,5.3224,5.3229,5.3235,5.336,5.3322,5.3485,5.3394,5.3333,5.3387,5.3383,5.3493,5.3507,5.3546,5.3697,5.3704,5.36,5.3606,5.361,5.3613,0,0,0,0,0,0,0,5.2999,5.3024,5.327,5.3227,5.3233,5.3233,5.3252,5.3353,5.3427,5.3338,5.3339,5.3361,5.3495,5.3537,5.355,5.3707,5.36,5.3609,5.3615,5.3618,5.3965,5.3968,0,0,0,0,0,0,5.2983,5.3014,5.3264,5.3275,5.3113,5.3241,5.3263,5.3323,5.3426,5.3439,5.3363,5.3361,5.3522,5.3539,5.3556,5.3704,5.361,5.3619,5.3625,5.3961,5.3966,5.3969,0,0,0,0,0,0,5.2976,5.3005,5.3257,5.3146,5.3178,5.325,5.3317,5.3328,5.337,5.3445,5.3457,5.3394,5.3521,5.3543,5.3657,5.371,5.3624,5.3632,5.3957,5.3963,5.3967,5.3999,0,0,0,0,0,0,5.2966,5.3003,5.3051,5.3147,5.3184,5.3359,5.3321,5.3333,5.3388,5.3387,5.3477,5.3489,5.352,5.3643,5.3667,5.3721,5.364,5.3953,5.396,5.3966,5.3993,5.4004,5.4014,0,0,0,0,0,5.2954,5.305,5.3054,5.3084,5.3246,5.3362,5.3382,5.342,5.3392,5.344,5.3488,5.3486,5.37,5.3655,5.3681,5.374,5.395,5.3958,5.3965,5.3989,5.4002,5.4013,0,0,0,0,0,0,5.2954,5.3063,5.3068,5.3199,5.3272,5.3363,5.3425,5.3432,5.3511,5.3506,5.3545,5.3565,5.3678,5.372,5.3667,5.386,5.3821,5.3835,5.383,5.3843,5.3853,5.3841,5.3648,0,0,0,0,0,5.297,5.3059,5.3147,5.3253,5.329,5.3351,5.3403,5.3426,5.3501,5.353,5.3587,5.3657,5.374,5.3793,5.3874,5.3999,5.4018,5.4052,5.4062,5.407,5.4082,5.4152,5.4168,5.3995,5.3995,5.3995,0,0,5.3002,5.3073,5.3125,5.3255,5.3315,5.3403,5.3377,5.347,5.3535,5.3543,5.3657,5.37,5.378,5.3901,5.3957,5.3939,5.4134,5.408,5.4086,5.4093,5.4161,5.4178,5.4192,5.4,5.3999,5.3998,0,0,5.3107,5.3169,5.3266,5.3327,5.3419,5.3459,5.3482,5.3574,5.3605,5.372,5.3728,5.3803,5.3945,5.4003,5.405,5.4179,5.4179,5.4203,5.4257,5.4324,5.4338,5.435,5.4397,5.4413,5.4214,5.4214,5.4214,0,5.3135,5.3272,5.3314,5.3409,5.3466,5.3481,5.3578,5.3633,5.3744,5.3781,5.3761,5.3941,5.3996,5.4131,5.4163,5.42,5.4227,5.4193,5.4334,5.4346,5.4358,5.4403,5.442,5.4216,5.4216,5.4216,5.4216,0,5.3302,5.3396,5.3463,5.3576,5.3639,5.3734,5.3788,5.3846,5.3863,5.3905,5.4021,5.4088,5.4183,5.4216,5.4231,5.4354,5.434,5.4326,5.4288,5.4377,5.442,5.4437,5.422,5.4219,5.4218,5.4218,0,0,5.3411,5.3549,5.3572,5.3624,5.3727,5.3799,5.3893,5.3991,5.4041,5.4116,5.4196,5.4317,5.4306,5.436,5.4381,5.4441,5.454,5.442,5.4422,5.4441,5.4679,5.469,5.471,5.454,5.4544,5.4547,5.4673,0,5.3529,5.3704,5.3745,5.3893,5.3981,5.3997,5.408,5.415,5.4191,5.4268,5.4311,5.4398,5.4375,5.4408,5.4468,5.4515,5.4588,5.4506,5.4613,5.4617,5.4595,5.4732,5.4744,5.486,5.469,5.4692,5.4695,0,5.3689,5.3775,5.3933,5.4027,5.4065,5.4139,5.4232,5.4307,5.4385,5.4411,5.4473,5.4489,5.4586,5.4542,5.4675,5.4619,5.4664,5.4694,5.4699,5.4711,5.4662,5.4749,5.4898,5.4916,5.4721,5.4719,5.4717,0,5.3756,5.3909,5.4025,5.4068,5.4179,5.4231,5.4279,5.4355,5.4412,5.4491,5.4528,5.4616,5.4664,5.4731,5.4769,5.4734,5.4899,5.4859,5.4922,5.4921,5.4957,5.4955,5.5117,5.4984,5.4984,5.4983,5.4983,0,5.3883,5.398,5.4057,5.4128,5.4236,5.428,5.4385,5.4432,5.45,5.4578,5.4595,5.4667,5.4714,5.4791,5.4821,5.4927,5.4948,5.497,5.4977,5.497,5.4967,5.5001,5.4995,5.4988,5.4987,5.4986,5.4985,0,5.3976,5.4031,5.4159,5.4255,5.4281,5.4357,5.4437,5.4505,5.4547,5.4646,5.4671,5.4736,5.4829,5.4874,5.4987,5.5007,5.5128,5.5128,5.5103,5.5106,5.5168,5.5162,5.5359,5.5387,5.5234,5.5235,5.5236,0,5.4055,5.4131,5.4236,5.4293,5.4343,5.4432,5.4492,5.4537,5.4597,5.4694,5.475,5.4844,5.4923,5.5069,5.5124,5.5211,5.5215,5.5278,5.5228,5.5219,5.5218,5.5214,5.5222,5.5287,5.5288,5.529,5.5291,0,5.4189,5.4214,5.4301,5.4398,5.447,5.4547,5.4623,5.4666,5.4723,5.4789,5.4888,5.4949,5.5067,5.516,5.5252,5.5296,5.5303,5.5306,5.5326,5.532,5.5303,5.5314,5.5129,5.5301,5.53,5.5299,5.5299,5.5298,5.4278,5.4347,5.4434,5.453,5.4593,5.4664,5.4735,5.4787,5.4871,5.4974,5.4994,5.5098,5.5174,5.5299,5.5347,5.5426,5.5412,5.5439,5.5447,5.5454,5.5458,5.5289,5.5442,5.5442,5.5442,5.5442,5.5441,0,5.4415,5.4473,5.4561,5.467,5.4745,5.4749,5.4833,5.4895,5.4988,5.5061,5.5139,5.5251,5.5342,5.5405,5.5496,5.5548,5.5553,5.557,5.5568,5.5578,5.5465,5.544,5.5565,5.5565,5.5565,5.5565,5.5565,5.5565,5.4496,5.4614,5.4648,5.4796,5.4851,5.4958,5.5006,5.507,5.5129,5.5256,5.5334,5.5375,5.5444,5.5541,5.5623,5.5639,5.5672,5.569,5.5706,5.5599,5.5586,5.5574,5.555,5.5697,5.5697,5.5813,5.5814,5.5815]}]]